星链-2220 (STARLINK-2220 )

导读 | 豆包AI

STARLINK-2220是美国太空探索技术公司(SpaceX)“星链”卫星互联网项目的成员,于2021年5月15日发射入轨。星链计划旨在构建全球卫星互联网星座,为全球偏远地区、海洋等网络覆盖薄弱区域提供高速低延迟的互联网服务。该卫星是星链大规模组网进程中的一颗批量生产卫星,为全球卫星通信网络的构建贡献力量。

基本信息
目录编号:
48570
目录名称:
STARLINK-2220
国际标识:
2021-041T
轨道中心:
EARTH
卫星名称:
星链-2220
卫星全名:
星链-2220 (STARLINK-2220 )
卫星状态:
在轨 (已飞行1811 天)
发射日期:
2021-05-15 UTC
国别 :
美国 (US)
星等 :
--
轨道信息
数据来源 国际轨道数据
星历时间: 2026-04-30T12:00:01+0800
8小时前
查看轨道信息
半长轴: 6868.529km
偏心率: 0.0001172
轨道倾角: 53.127°
近地点辐角 85.813°
升交点赤经 269.466°
平近点角 116.805°
近地点: 489.587km
远地点: 491.197km
周期: 94.418分钟
每日圈数: 15.251313
详细信息
固有亮度:
5
最大亮度:
2.5
卫星平台:
Starlink V1.0
覆盖范围:
全球
运营商:
太空探索技术公司
运营商所在国:
美国
制造商(研发单位):
太空探索技术公司
制造商所在国:
美国
使用方式:
暂无
卫星简介
星链(Starlink)计划是由太空探索技术公司(SpaceX)提出的一个巨型低轨卫星互联网星座项目,计划在2019年至2024年间在太空搭建由约1.2万颗卫星组成的“星链”网络,其中1584颗将部署在地球上空550千米处的近地轨道,并从2020年开始工作。该卫星仍在工作。
2D轨道图
3D轨道图
轨道高度分析图
轨道倾角分析图
轨道综合分析图
查看轨道综合分析图